星链-37964(STARLINK-37964)

导读

STARLINK-37964(NORAD编号69958)是美国太空探索技术公司(SpaceX)星链低轨通信星座的成员卫星,归属星链第二/第三代部署序列,2026年上半年完成发射入轨,运行于近地轨道,承担全球卫星互联网接入服务任务。作为SpaceX星链组网的组成部分,该卫星与在轨超1万颗星链卫星协同,为全球150余个国家和地区的超1000万用户提供低时延、高速率的天基网络服务,目前在轨运行状态稳定,无公开异常记录。

基本信息
目录编号:
69958
目录名称:
STARLINK-37964
国际标识:
2026-157R
轨道中心:
EARTH
卫星名称:
星链-37964
卫星全名:
星链-37964(STARLINK-37964)
卫星状态:
在轨 (已飞行57 天)
发射日期:
2026-07-09 UTC
国别 :
美国 (US)
星等 :
--
轨道信息
数据来源 国际轨道数据
星历时间: 2026-09-02T02:36:51+0800
2天前
查看轨道信息
半长轴: 6837.875km
偏心率: 0.000073
轨道倾角: 53.160°
近地点辐角 91.689°
升交点赤经 61.590°
平近点角 268.419°
近地点: 459.238km
远地点: 460.238km
周期: 93.787分钟
每日圈数: 15.353985
详细信息
固有亮度:
5
最大亮度:
2.5
卫星平台:
Starlink V1.0
覆盖范围:
全球
运营商:
太空探索技术公司
运营商所在国:
美国
制造商(研发单位):
太空探索技术公司
制造商所在国:
美国
使用方式:
暂无
卫星简介
Starlink 计划是 SpaceX 推出的全球卫星互联网项目,通过发射低轨道卫星,为全球尤其是偏远地区提供高速、低延迟的互联网服务。自 2019 年起,Starlink 已部署数千颗卫星,旨在缩小全球数字鸿沟,推动互联网普及。该项目还为军事、航空等行业提供通信支持,带来广泛经济效益。
2D轨道图
3D轨道图
轨道高度分析图
轨道倾角分析图
轨道综合分析图
查看轨道综合分析图
交会数据列表
事件ID 空间交会对象 最接近时刻(TCA) 交会距离 交会风险概率(CRP) 交会风险指数(CRI) 操作
CDM_260904-230206-564606-995821
2026-09-04T
23:02:56+0000
2.629 km
极远距离
1.406387E-6 低风险 0.38
CDM_260904-201406-804406-995821
2026-09-04T
20:14:26+0000
2.570 km
极远距离
1.350981E-6 低风险 0.38
CDM_260903-153104-380306-995823
JY1SAT (43803)
2026-09-03T
15:31:08+0000
2.811 km
极远距离
1.295722E-6 低风险 0.37
CDM_260903-145906-824106-995822
2026-09-03T
14:59:12+0000
2.875 km
极远距离
1.21079E-6 低风险 0.37
CDM_260903-205904-380306-995822
JY1SAT (43803)
2026-09-03T
20:59:24+0000
2.965 km
极远距离
1.206323E-6 低风险 0.37
CDM_260904-085005-396706-995821
2026-09-04T
08:50:26+0000
2.933 km
极远距离
1.001236E-6 低风险 0.35
CDM_260904-031706-207006-995821
2026-09-04T
03:17:04+0000
2.715 km
极远距离
6.662545E-7 极低风险 0.31